TimeAKST,TemperatureF,Dew PointF,Humidity,Sea Level PressureIn,VisibilityMPH,Wind Direction,Wind SpeedMPH,Gust SpeedMPH,PrecipitationIn,Events,Conditions,WindDirDegrees,DateUTC
12:53 AM,35.1,32.0,89,29.84,10.0,NE,4.6,-,N/A,,Overcast,40,2013-11-06 09:53:00
1:53 AM,35.1,33.1,92,29.84,10.0,Calm,Calm,-,N/A,,Overcast,0,2013-11-06 10:53:00
3:53 AM,37.0,35.1,93,29.88,10.0,Calm,Calm,-,N/A,,Overcast,0,2013-11-06 12:53:00
4:53 AM,37.9,35.1,89,29.89,10.0,Calm,Calm,-,N/A,,Overcast,0,2013-11-06 13:53:00
5:53 AM,41.0,32.0,70,29.89,10.0,North,8.1,-,N/A,,Overcast,360,2013-11-06 14:53:00
6:53 AM,39.9,30.9,70,29.92,10.0,Calm,Calm,-,N/A,,Overcast,0,2013-11-06 15:53:00
7:53 AM,41.0,30.0,65,29.93,10.0,Variable,4.6,-,N/A,,Overcast,0,2013-11-06 16:53:00
8:53 AM,43.0,28.0,56,29.96,10.0,North,10.4,21.9,N/A,,Overcast,350,2013-11-06 17:53:00
9:53 AM,43.0,28.0,56,29.99,10.0,Variable,6.9,-,N/A,,Overcast,0,2013-11-06 18:53:00
10:53 AM,43.0,27.0,53,29.99,10.0,Variable,4.6,-,N/A,,Overcast,0,2013-11-06 19:53:00
11:53 AM,43.0,26.1,51,30.02,10.0,North,6.9,16.1,N/A,,Overcast,10,2013-11-06 20:53:00
12:53 PM,43.0,26.1,51,30.04,10.0,Variable,5.8,-,N/A,,Overcast,0,2013-11-06 21:53:00
1:53 PM,44.1,25.0,47,30.04,10.0,Variable,3.5,-,N/A,,Overcast,0,2013-11-06 22:53:00
2:53 PM,43.0,24.1,47,30.03,10.0,Variable,3.5,-,N/A,,Overcast,0,2013-11-06 23:53:00
3:53 PM,42.1,25.0,51,30.04,10.0,North,4.6,-,N/A,,Overcast,10,2013-11-07 00:53:00
4:53 PM,41.0,25.0,53,30.04,10.0,North,3.5,-,N/A,,Overcast,360,2013-11-07 01:53:00
5:53 PM,41.0,25.0,53,30.04,10.0,Variable,3.5,-,N/A,,Overcast,0,2013-11-07 02:53:00
6:53 PM,41.0,24.1,51,30.04,10.0,Calm,Calm,-,N/A,,Overcast,0,2013-11-07 03:53:00
7:53 PM,41.0,24.1,51,30.03,10.0,Variable,3.5,-,N/A,,Overcast,0,2013-11-07 04:53:00
8:53 PM,39.9,25.0,55,30.04,10.0,North,3.5,-,N/A,,Overcast,350,2013-11-07 05:53:00
9:53 PM,39.9,24.1,53,30.04,10.0,Variable,4.6,-,N/A,,Overcast,0,2013-11-07 06:53:00
10:53 PM,39.0,25.0,57,30.03,10.0,Calm,Calm,-,N/A,,Overcast,0,2013-11-07 07:53:00
11:53 PM,39.0,26.1,60,30.01,10.0,Calm,Calm,-,N/A,,Overcast,0,2013-11-07 08:53:00